Location: El Centro
(32.7920°N, 115.5620°W)
Time: 10:36:23
(UTC-07:00)

Amateur Radio Satellites - All Passes

Search period start: 07 July 2015 10:06
Search period end: 08 July 2015 10:06
Location: El Centro, 32.7920°N, 115.5620°W

Satellite Date Start Highest point End Downlink Frequencies (MHz)
Time Altitude Azimuth
Oscar 11 07 Jul 10:06:27 10:10:47 65° 101° (E) 10:15:06 145.826/435.025
GONETS M04 07 Jul 10:06:37 10:14:32 35° 286° (WNW) 10:22:16
HO-68 07 Jul 10:09:01 10:15:51 48° 290° (WNW) 10:22:38 435.675
POPSAT HIP 1 07 Jul 10:10:05 10:12:26 15° 70° (ENE) 10:14:57 437.405
QB50P2 07 Jul 10:10:06 10:12:34 16° 70° (ENE) 10:15:12 145.880/145.840
VERMONT LUNAR 07 Jul 10:14:02 10:16:54 32° 17° (NNE) 10:19:46 437.305
CUTE 1.7 + AOD 2 07 Jul 10:14:30 10:17:50 21° 288° (WNW) 10:21:03 437.475
CUBEBUG 2 07 Jul 10:16:40 10:20:56 85° 101° (ESE) 10:25:20 437.445
CANX-2 07 Jul 10:18:44 10:21:41 18° 289° (WNW) 10:24:27 2200.000
50 SAT 07 Jul 10:39:15 10:41:25 15° 93° (E) 10:43:44 437.505
FUNcube-1 07 Jul 10:39:27 10:43:44 90° 315° (NW) 10:48:06 145.935
UNISAT 6 07 Jul 10:39:58 10:44:16 84° 255° (WSW) 10:48:33 437.425
AISAT 07 Jul 10:40:52 10:43:12 15° 92° (E) 10:45:45 437.250
QB50P1 07 Jul 10:46:57 10:50:57 42° 74° (ENE) 10:54:58 145.935-145.965
DELFI C3 07 Jul 10:52:42 10:56:37 45° 285° (WNW) 11:00:30 145.870
NANOSAT C BR1 07 Jul 10:59:38 11:03:49 61° 76° (ENE) 11:07:59 145.865
UWE-3 07 Jul 11:01:12 11:05:07 35° 286° (WNW) 11:09:04 435.000/436.395/437.385
AAUSAT CUBESAT 2 07 Jul 11:02:00 11:03:32 11° 291° (WNW) 11:04:48 437.432
DUCHIFAT 1 07 Jul 11:05:22 11:09:35 71° 76° (ENE) 11:13:47 145.980
BUGSAT 1 07 Jul 11:07:48 11:11:51 47° 75° (ENE) 11:15:53 437.445
POLYITAN 1 07 Jul 11:14:43 11:18:58 82° 257° (WSW) 11:23:12 437.675
PHONESAT 2.4 07 Jul 11:18:14 11:21:12 27° 11° (N) 11:24:13 2401.200-2431.200
ESTCUBE 1 07 Jul 11:23:34 11:27:31 30° 97° (E) 11:31:30 437.505/2401.250
DX 1 07 Jul 11:24:15 11:28:36 85° 284° (WNW) 11:32:55 434.975-435.025
ANTELSAT 07 Jul 11:25:35 11:29:03 23° 265° (W) 11:32:24 437.575/2403.000
VELOX 1 07 Jul 11:27:28 11:31:46 52° 100° (E) 11:36:03 145.980
HUMSAT D 07 Jul 11:32:49 11:36:52 47° 285° (WNW) 11:40:56 437.325/437.525
TIGRISAT 07 Jul 11:37:00 11:40:00 18° 266° (W) 11:42:50 435.000
UKube-1 07 Jul 11:40:10 11:44:25 59° 285° (WNW) 11:48:38 .
ZACube-1 07 Jul 11:42:23 11:45:06 16° 289° (WNW) 11:47:41 437.345
POPSAT HIP 1 07 Jul 11:44:07 11:48:02 35° 262° (W) 11:51:56 437.405
QB50P2 07 Jul 11:44:20 11:48:13 34° 263° (W) 11:52:04 145.880/145.840
VERMONT LUNAR 07 Jul 11:50:50 11:53:50 43° 211° (SSW) 11:56:51 437.305
Cosmos 2499 07 Jul 11:54:29 12:00:18 26° 287° (WNW) 12:05:59 435.465 / 435.565
RS-15 07 Jul 11:56:11 12:07:59 72° 246° (WSW) 12:20:05 29.354- 29.394
TISAT 1 07 Jul 12:06:52 12:08:11 12° 91° (E) 12:09:48 437.305
50 SAT 07 Jul 12:12:38 12:16:06 30° 286° (WNW) 12:19:32 437.505
AISAT 07 Jul 12:15:53 12:19:58 37° 287° (WNW) 12:24:00 437.250
CUBEBUG 1 07 Jul 12:22:55 12:27:13 61° 284° (WNW) 12:31:28 437.445
QB50P1 07 Jul 12:25:17 12:27:04 12° 269° (W) 12:28:34 145.935-145.965
Oscar 19 07 Jul 12:26:24 12:29:55 20° 69° (ENE) 12:33:38 437.125/150
BUGSAT 1 07 Jul 12:46:28 12:47:36 11° 269° (W) 12:48:27 437.445
PHONESAT 2.4 07 Jul 12:56:01 12:59:29 88° 208° (SSW) 13:02:57 2401.200-2431.200
ESTCUBE 1 07 Jul 13:00:50 13:04:12 20° 290° (WNW) 13:07:26 437.505/2401.250
Gurwin Techsat 1B 07 Jul 13:00:57 13:02:31 12° 65° (ENE) 13:04:26 435.225
VELOX 1 07 Jul 13:06:23 13:07:55 11° 292° (WNW) 13:09:10 145.980
SPROUT 07 Jul 13:11:56 13:16:09 60° 284° (WNW) 13:20:20 437.525
ISS 07 Jul 13:20:04 13:22:34 20° 35° (NE) 13:25:06 145.825
PCSat 07 Jul 13:28:56 13:31:09 13° 105° (ESE) 13:33:42 145.827
TISAT 1 07 Jul 13:40:16 13:44:13 42° 286° (WNW) 13:48:09 437.305
YUBILEINY 07 Jul 13:48:11 13:56:24 44° 77° (ENE) 14:04:44 435.215
BEESAT 07 Jul 14:03:43 14:08:17 43° 99° (E) 14:12:50 436.000
Oscar 19 07 Jul 14:04:12 14:09:02 40° 262° (W) 14:13:49 437.125/150
Cosmos 2491 07 Jul 14:05:38 14:13:07 34° 88° (E) 14:20:50 435.465 / 435.565
RS-15 07 Jul 14:14:26 14:19:09 12° 259° (W) 14:22:26 29.354- 29.394
SWISSCUBE 07 Jul 14:19:41 14:24:29 73° 101° (E) 14:29:16 437.505
ITAMSAT 1 07 Jul 14:22:46 14:27:59 78° 75° (ENE) 14:33:14 435.822/435.867
ITUPSAT 1 07 Jul 14:26:41 14:31:31 78° 103° (ESE) 14:36:19 437.325
AO-7 07 Jul 14:34:50 14:41:16 27° 62° (ENE) 14:47:59 29.400- 29.500
PHONESAT 2.4 07 Jul 14:35:27 14:37:11 13° 218° (SW) 14:38:49 2401.200-2431.200
Gurwin Techsat 1B 07 Jul 14:36:39 14:41:57 74° 257° (WSW) 14:47:17 435.225
AIST 1 07 Jul 14:44:31 14:48:26 33° 92° (E) 14:52:25
JUGNU 07 Jul 14:54:08 14:58:12 19° 170° (S) 15:02:19 437.505
ISS 07 Jul 14:56:08 14:58:59 28° 229° (SW) 15:01:48 145.825
JAS-2 07 Jul 15:06:35 15:11:32 49° 73° (ENE) 15:16:44 435.910
STARS 07 Jul 15:07:03 15:09:59 18° 94° (E) 15:13:06 437.465
PCSat 07 Jul 15:08:44 15:14:05 64° 297° (WNW) 15:19:29 145.827
SO-50 07 Jul 15:13:27 15:17:43 38° 113° (ESE) 15:22:12 436.795
BEESAT 3 07 Jul 15:29:25 15:33:21 49° 59° (ENE) 15:37:13 437.485
BEESAT 07 Jul 15:42:46 15:45:48 16° 292° (WNW) 15:48:37 436.000
YUBILEINY 07 Jul 15:45:24 15:53:03 33° 272° (W) 16:00:28 435.215
BEESAT 2 07 Jul 15:46:34 15:50:36 61° 60° (ENE) 15:54:33 435.950
AIST 2 07 Jul 15:51:20 15:53:55 16° 50° (NE) 15:56:36 435.215
SRMSAT 07 Jul 15:53:33 15:56:50 15° 167° (SSE) 16:00:12 437.500
HORYU 2 07 Jul 15:54:10 15:58:35 84° 258° (WSW) 16:03:01 437.375
KKS-1 07 Jul 15:58:59 16:03:21 58° 284° (WNW) 16:07:41 437.445
Cosmos 2491 07 Jul 16:01:27 16:09:48 44° 283° (WNW) 16:18:04 435.465 / 435.565
AIST 1 07 Jul 16:23:27 16:26:13 16° 286° (WNW) 16:28:49
AO-7 07 Jul 16:25:21 16:33:35 61° 257° (WSW) 16:41:50 29.400- 29.500
Cosmos 2504 07 Jul 16:35:38 16:43:14 60° 81° (E) 16:51:24 435.465 / 435.565
MOZHAYETS 4 07 Jul 16:41:42 16:45:58 36° 97° (E) 16:50:15
JUGNU 07 Jul 16:42:01 16:46:38 23° 180° (S) 16:51:17 437.505
STARS 07 Jul 16:42:38 16:46:30 30° 287° (WNW) 16:50:18 437.465
O/OREOS (USA 219) 07 Jul 16:51:12 16:55:42 63° 69° (ENE) 17:00:13 437.305
JAS-2 07 Jul 16:54:24 16:57:11 14° 270° (W) 16:59:42 435.910
SO-50 07 Jul 16:54:46 16:58:26 21° 310° (NW) 17:02:04 436.795
CUTE-I 07 Jul 17:25:00 17:29:15 25° 69° (ENE) 17:33:38 437.470
AIST 2 07 Jul 17:28:47 17:32:41 38° 246° (WSW) 17:36:28 435.215
SRMSAT 07 Jul 17:40:53 17:45:25 22° 176° (S) 17:49:57 437.500
Cubesat XI-IV 07 Jul 17:59:13 18:04:26 56° 74° (ENE) 18:09:42 437.490
MOZHAYETS 4 07 Jul 18:19:45 18:22:56 18° 290° (WNW) 18:25:57
DANDE 07 Jul 18:25:01 18:26:33 15° 76° (ENE) 18:28:12 436.750
GONETS M04 07 Jul 18:27:18 18:31:40 15° 65° (ENE) 18:36:38
Cosmos 2504 07 Jul 18:29:14 18:35:02 22° 273° (W) 18:40:41 435.465 / 435.565
JUGNU 07 Jul 18:31:00 18:35:05 19° 190° (S) 18:39:08 437.505
CUSAT 1 07 Jul 18:37:02 18:39:35 53° 81° (E) 18:42:24 437.405
HO-68 07 Jul 18:49:40 18:52:07 12° 59° (ENE) 18:55:05 435.675
CUBESAT XI-V 07 Jul 18:55:08 18:59:50 84° 104° (ESE) 19:04:27 437.345
CUTE-I 07 Jul 19:04:21 19:09:11 33° 263° (W) 19:13:59 437.470
BRITE-PL 07 Jul 19:08:12 19:12:46 29° 73° (ENE) 19:17:12 437.365/2234.400
PRISM 07 Jul 19:11:11 19:14:53 31° 97° (E) 19:18:36 437.425
SRMSAT 07 Jul 19:29:34 19:34:01 22° 186° (S) 19:38:26 437.500
CUTE 1.7 + AOD 2 07 Jul 19:29:49 19:30:32 11° 69° (ENE) 19:31:32 437.475
CANX-2 07 Jul 19:32:32 19:34:26 13° 69° (ENE) 19:36:34 2200.000
STRAND 1 07 Jul 19:40:12 19:45:21 75° 102° (ESE) 19:50:27 437.568
Cubesat XI-IV 07 Jul 19:41:56 19:44:57 14° 269° (W) 19:47:40 437.490
Cosmos 2499 07 Jul 19:59:05 20:00:49 11° 64° (ENE) 20:03:22 435.465 / 435.565
GOMX 1 07 Jul 20:02:23 20:07:27 62° 76° (ENE) 20:12:13 467.674
SEEDS 07 Jul 20:09:14 20:12:40 26° 73° (ENE) 20:16:13 437.485
AAUSAT CUBESAT 2 07 Jul 20:11:39 20:14:24 18° 71° (ENE) 20:17:19 437.432
GONETS M04 07 Jul 20:21:06 20:29:49 87° 267° (W) 20:38:32
DOVE 4 07 Jul 20:28:36 20:33:27 72° 77° (ENE) 20:38:02 437.250
HO-68 07 Jul 20:31:49 20:38:58 82° 74° (ENE) 20:46:08 435.675
COMPASS 1 07 Jul 20:39:43 20:43:42 48° 75° (ENE) 20:47:44 437.405
BRITE-PL 07 Jul 20:46:30 20:51:13 28° 264° (W) 20:55:37 437.365/2234.400
PRISM 07 Jul 20:47:21 20:50:06 17° 290° (WNW) 20:52:42 437.425
CINEMA 3 07 Jul 20:47:22 20:51:41 48° 75° (ENE) 20:55:51 145.822/145.860
Oscar 11 07 Jul 20:57:15 21:00:53 28° 73° (ENE) 21:04:36 145.826/435.025
ZACube-1 07 Jul 20:58:13 21:00:38 16° 71° (ENE) 21:03:13 437.345
AUBIESAT-1 07 Jul 21:01:33 21:05:28 30° 102° (ESE) 21:09:35 437.475
CUTE 1.7 + AOD 2 07 Jul 21:01:58 21:06:03 51° 261° (W) 21:10:10 437.475
CANX-2 07 Jul 21:06:05 21:10:02 40° 262° (W) 21:14:01 2200.000
CUBEBUG 2 07 Jul 21:10:50 21:14:49 39° 74° (ENE) 21:18:44 437.445
SRMSAT 07 Jul 21:19:41 21:22:35 14° 195° (SSW) 21:25:21 437.500
STRAND 1 07 Jul 21:22:40 21:24:00 11° 295° (WNW) 21:24:58 437.568
FUNcube-1 07 Jul 21:31:06 21:34:58 38° 74° (ENE) 21:38:50 145.935
DELFI C3 07 Jul 21:35:09 21:39:02 54° 76° (ENE) 21:42:58 145.870
M-CUBED/EXP-1 PRIME 07 Jul 21:39:03 21:43:30 83° 287° (WNW) 21:48:12 437.505
GOMX 1 07 Jul 21:44:08 21:45:54 11° 269° (W) 21:47:16 467.674
SEEDS 07 Jul 21:45:25 21:48:29 19° 266° (W) 21:51:25 437.485
AAUSAT CUBESAT 2 07 Jul 21:46:16 21:49:51 27° 264° (W) 21:53:23 437.432
Cosmos 2499 07 Jul 21:47:16 21:55:22 76° 82° (E) 22:04:03 435.465 / 435.565
UWE-3 07 Jul 21:53:35 21:57:50 78° 258° (WSW) 22:02:00 435.000/436.395/437.385
DX 1 07 Jul 22:15:21 22:19:31 46° 74° (ENE) 22:23:44 434.975-435.025
ESTCUBE 1 07 Jul 22:19:50 22:22:42 17° 70° (ENE) 22:25:45 437.505/2401.250
HUMSAT D 07 Jul 22:19:55 22:23:57 63° 77° (ENE) 22:28:00 437.325/437.525
VELOX 1 07 Jul 22:21:00 22:24:45 27° 72° (ENE) 22:28:34 145.980
GONETS M04 07 Jul 22:21:53 22:25:40 13° 279° (W) 22:28:40
HO-68 07 Jul 22:23:51 22:27:33 14° 270° (W) 22:30:42 435.675
CINEMA 3 07 Jul 22:27:36 22:29:09 11° 269° (W) 22:30:22 145.822/145.860
UKube-1 07 Jul 22:30:15 22:34:32 64° 75° (ENE) 22:38:50 .
ZACube-1 07 Jul 22:32:59 22:36:47 32° 263° (W) 22:40:31 437.345
Oscar 11 07 Jul 22:33:59 22:37:06 19° 266° (W) 22:40:05 145.826/435.025
UNISAT 6 07 Jul 22:36:23 22:40:12 28° 97° (E) 22:44:08 437.425
AUBIESAT-1 07 Jul 22:36:33 22:40:02 22° 292° (WNW) 22:43:32 437.475
CUBEBUG 2 07 Jul 22:49:37 22:51:41 13° 268° (W) 22:53:31 437.445
NANOSAT C BR1 07 Jul 22:50:33 22:52:36 14° 92° (E) 22:54:52 145.865
50 SAT 07 Jul 22:51:42 22:55:30 76° 77° (ENE) 22:59:20 437.505
DUCHIFAT 1 07 Jul 22:55:46 22:58:13 16° 93° (E) 23:00:51 145.980
POLYITAN 1 07 Jul 23:05:12 23:08:27 22° 95° (E) 23:11:48 437.675
AISAT 07 Jul 23:08:36 23:13:04 76° 257° (WSW) 23:17:33 437.250
FUNcube-1 07 Jul 23:09:31 23:11:30 13° 268° (W) 23:13:15 145.935
CUBEBUG 1 07 Jul 23:14:14 23:18:36 62° 76° (ENE) 23:22:59 437.445
ANTELSAT 07 Jul 23:20:28 23:24:56 85° 281° (W) 23:29:30 437.575/2403.000
TIGRISAT 07 Jul 23:31:07 23:35:31 66° 284° (WNW) 23:40:00 435.000
POPSAT HIP 1 07 Jul 23:33:18 23:37:23 48° 99° (E) 23:41:28 437.405
QB50P2 07 Jul 23:33:36 23:37:42 51° 100° (E) 23:41:49 145.880/145.840
Cosmos 2499 07 Jul 23:42:42 23:47:57 18° 275° (W) 23:52:50 435.465 / 435.565
SO-50 07 Jul 23:50:32 23:52:52 13° 46° (NE) 23:55:24 436.795
DX 1 07 Jul 23:54:14 23:56:03 12° 268° (W) 23:57:37 434.975-435.025
ESTCUBE 1 07 Jul 23:55:08 23:59:19 36° 262° (W) 00:03:30 437.505/2401.250
VELOX 1 07 Jul 23:57:50 00:01:17 21° 265° (W) 00:04:38 145.980
PCSat 08 Jul 00:01:13 00:06:16 39° 59° (ENE) 00:11:21 145.827
SPROUT 08 Jul 00:01:23 00:05:36 57° 76° (ENE) 00:09:49 437.525
RS-15 08 Jul 00:04:54 00:12:56 26° 105° (ESE) 00:21:36 29.354- 29.394
QB50P1 08 Jul 00:11:54 00:16:00 51° 285° (WNW) 00:20:05 145.935-145.965
UNISAT 6 08 Jul 00:13:26 00:16:51 21° 288° (WNW) 00:20:10 437.425
NANOSAT C BR1 08 Jul 00:24:44 00:28:36 36° 286° (WNW) 00:32:26 145.865
Cosmos 2491 08 Jul 00:24:44 00:26:48 11° 62° (ENE) 00:29:43 435.465 / 435.565
TISAT 1 08 Jul 00:27:25 00:31:39 76° 77° (ENE) 00:35:52 437.305
BUGSAT 1 08 Jul 00:29:40 00:33:35 50° 285° (WNW) 00:37:27 437.445
DUCHIFAT 1 08 Jul 00:30:23 00:34:07 32° 287° (WNW) 00:37:50 145.980
POLYITAN 1 08 Jul 00:40:54 00:44:17 23° 288° (WNW) 00:47:35 437.675
BEESAT 08 Jul 01:06:07 01:10:13 30° 72° (ENE) 01:14:25 436.000
POPSAT HIP 1 08 Jul 01:11:34 01:12:52 11° 292° (WNW) 01:13:55 437.405
QB50P2 08 Jul 01:12:12 01:13:12 11° 292° (WNW) 01:13:56 145.880/145.840
SWISSCUBE 08 Jul 01:21:48 01:26:23 50° 74° (ENE) 01:31:02 437.505
ITUPSAT 1 08 Jul 01:29:01 01:33:40 53° 74° (ENE) 01:38:21 437.325
SO-50 08 Jul 01:29:05 01:34:01 72° 244° (WSW) 01:38:48 436.795
PCSat 08 Jul 01:45:17 01:49:28 22° 253° (WSW) 01:53:28 145.827
RS-15 08 Jul 02:13:38 02:24:28 69° 302° (WNW) 02:35:36 29.354- 29.394
Cosmos 2491 08 Jul 02:16:43 02:25:28 77° 82° (E) 02:34:10 435.465 / 435.565
Oscar 19 08 Jul 02:19:49 02:24:57 79° 284° (WNW) 02:30:06 437.125/150
AIST 1 08 Jul 02:33:13 02:37:34 84° 83° (E) 02:41:51
ITAMSAT 1 08 Jul 02:40:26 02:45:18 40° 98° (E) 02:50:10 435.822/435.867
YUBILEINY 08 Jul 02:43:07 02:51:32 59° 92° (E) 03:00:03 435.215
BEESAT 08 Jul 02:44:21 02:48:05 22° 265° (W) 02:51:43 436.000
KKS-1 08 Jul 02:52:25 02:56:50 72° 76° (ENE) 03:01:16 437.445
Gurwin Techsat 1B 08 Jul 02:57:25 03:02:42 65° 101° (E) 03:07:59 435.225
SWISSCUBE 08 Jul 03:02:12 03:04:35 13° 269° (W) 03:06:41 437.505
ITUPSAT 1 08 Jul 03:09:52 03:11:56 12° 269° (W) 03:13:43 437.325
STARS 08 Jul 03:34:26 03:38:47 61° 259° (W) 03:43:08 437.465
MOZHAYETS 4 08 Jul 03:40:00 03:43:20 21° 71° (ENE) 03:46:49
HORYU 2 08 Jul 03:50:16 03:53:58 26° 96° (E) 03:57:45 437.375
JAS-2 08 Jul 04:02:41 04:09:44 75° 102° (ESE) 04:17:26 435.910
Cosmos 2491 08 Jul 04:16:03 04:21:31 17° 277° (W) 04:26:24 435.465 / 435.565
ITAMSAT 1 08 Jul 04:20:44 04:24:33 20° 292° (WNW) 04:28:11 435.822/435.867
VERMONT LUNAR 08 Jul 04:22:42 04:25:14 23° 145° (SE) 04:27:48 437.305
AO-7 08 Jul 04:31:52 04:40:08 63° 103° (ESE) 04:48:23 29.400- 29.500
RS-15 08 Jul 04:32:12 04:39:37 19° 329° (NNW) 04:46:42 29.354- 29.394
Gurwin Techsat 1B 08 Jul 04:39:39 04:42:12 13° 294° (WNW) 04:44:26 435.225
YUBILEINY 08 Jul 04:42:02 04:48:58 25° 290° (WNW) 04:55:34 435.215
Cosmos 2504 08 Jul 05:01:44 05:08:17 47° 91° (E) 05:14:52 435.465 / 435.565
MOZHAYETS 4 08 Jul 05:16:23 05:20:24 29° 264° (W) 05:24:24
BEESAT 3 08 Jul 05:18:08 05:21:30 26° 112° (ESE) 05:24:59 437.485
O/OREOS (USA 219) 08 Jul 05:22:43 05:24:20 12° 100° (E) 05:26:14 437.305
HORYU 2 08 Jul 05:26:57 05:30:30 23° 289° (WNW) 05:33:56 437.375
BEESAT 2 08 Jul 05:35:59 05:39:38 33° 113° (ESE) 05:43:22 435.950
PHONESAT 2.4 08 Jul 05:40:05 05:42:25 17° 143° (SE) 05:44:49 2401.200-2431.200
CUTE-I 08 Jul 05:47:44 05:50:12 14° 91° (E) 05:53:00 437.470
JAS-2 08 Jul 05:49:38 05:54:20 19° 293° (WNW) 05:58:54 435.910
CUBESAT XI-V 08 Jul 05:53:54 05:58:25 48° 74° (ENE) 06:02:58 437.345
ISS 08 Jul 05:55:08 05:58:20 66° 134° (SE) 06:01:34 145.825
PRISM 08 Jul 05:58:29 06:00:26 13° 69° (ENE) 06:02:37 437.425
VERMONT LUNAR 08 Jul 05:58:59 06:01:59 47° 339° (NNW) 06:05:00 437.305
CUSAT 1 08 Jul 05:59:24 06:00:47 11° 94° (E) 06:02:32 437.405
Cubesat XI-IV 08 Jul 06:21:24 06:26:08 32° 97° (E) 06:30:54 437.490
AO-7 08 Jul 06:25:50 06:32:25 26° 298° (WNW) 06:38:42 29.400- 29.500
STRAND 1 08 Jul 06:51:31 06:56:36 68° 76° (ENE) 07:01:45 437.568
Cosmos 2504 08 Jul 06:55:26 07:00:48 23° 288° (WNW) 07:05:55 435.465 / 435.565
BEESAT 3 08 Jul 06:56:15 06:59:26 21° 307° (NW) 07:02:35 437.485
O/OREOS (USA 219) 08 Jul 06:59:07 07:03:24 45° 293° (WNW) 07:07:41 437.305
BEESAT 2 08 Jul 07:14:55 07:17:48 18° 308° (NW) 07:20:37 435.950
PHONESAT 2.4 08 Jul 07:16:46 07:20:11 70° 335° (NNW) 07:23:36 2401.200-2431.200
AIST 2 08 Jul 07:21:52 07:26:04 63° 300° (WNW) 07:30:19 435.215
GONETS M04 08 Jul 07:22:50 07:28:39 21° 84° (E) 07:34:55
CUTE-I 08 Jul 07:25:28 07:30:43 58° 286° (WNW) 07:35:56 437.470
DANDE 08 Jul 07:27:19 07:34:31 68° 97° (E) 07:40:01 436.750
PRISM 08 Jul 07:31:38 07:35:34 39° 261° (W) 07:39:30 437.425
ISS 08 Jul 07:33:32 07:35:03 12° 330° (NNW) 07:36:30 145.825
CUBESAT XI-V 08 Jul 07:33:48 07:36:09 13° 269° (W) 07:38:14 437.345
VERMONT LUNAR 08 Jul 07:36:55 07:39:18 20° 355° (N) 07:41:41 437.305
CUSAT 1 08 Jul 07:37:00 07:43:29 71° 279° (W) 07:48:21 437.405
AUBIESAT-1 08 Jul 07:47:18 07:48:58 14° 65° (ENE) 07:50:50 437.475
Cubesat XI-IV 08 Jul 08:01:41 08:06:07 26° 290° (WNW) 08:10:24 437.490
HO-68 08 Jul 08:06:07 08:10:44 19° 92° (E) 08:15:44 435.675
GOMX 1 08 Jul 08:09:40 08:12:47 21° 95° (E) 08:16:03 467.674
M-CUBED/EXP-1 PRIME 08 Jul 08:24:06 08:27:19 55° 71° (ENE) 08:30:41 437.505
COMPASS 1 08 Jul 08:29:47 08:30:57 11° 91° (E) 08:32:25 437.405
DOVE 4 08 Jul 08:32:42 08:36:02 24° 96° (E) 08:39:30 437.250
STRAND 1 08 Jul 08:35:03 08:36:22 11° 270° (W) 08:37:16 437.568
CINEMA 3 08 Jul 08:47:37 08:50:00 15° 93° (E) 08:52:37 145.822/145.860
CUTE 1.7 + AOD 2 08 Jul 08:51:33 08:55:30 36° 97° (E) 08:59:29 437.475
CANX-2 08 Jul 08:55:27 08:59:36 46° 99° (E) 09:03:44 2200.000
BRITE-PL 08 Jul 08:55:39 08:59:44 52° 284° (WNW) 09:03:44 437.365/2234.400
PHONESAT 2.4 08 Jul 08:55:40 08:58:32 24° 351° (N) 09:01:25 2401.200-2431.200
CUBEBUG 2 08 Jul 09:08:05 09:09:22 11° 91° (E) 09:10:57 437.445
RS-15 08 Jul 09:08:40 09:17:40 26° 39° (NE) 09:27:21 29.354- 29.394
DANDE 08 Jul 09:13:57 09:17:42 15° 285° (WNW) 09:20:40 436.750
VERMONT LUNAR 08 Jul 09:14:11 09:16:47 24° 11° (NNE) 09:19:25 437.305
GONETS M04 08 Jul 09:16:06 09:24:50 67° 279° (W) 09:33:33
AUBIESAT-1 08 Jul 09:20:49 09:23:34 23° 260° (W) 09:26:21 437.475
DELFI C3 08 Jul 09:21:25 09:21:57 10° 90° (E) 09:22:47 145.870
FUNcube-1 08 Jul 09:26:21 09:26:53 10° 91° (E) 09:27:44 145.935
SEEDS 08 Jul 09:32:36 09:36:53 85° 282° (WNW) 09:41:09 437.485
UNISAT 6 08 Jul 09:32:45 09:34:58 14° 70° (ENE) 09:37:22 437.425
AAUSAT CUBESAT 2 08 Jul 09:32:46 09:36:57 61° 100° (E) 09:41:08 437.432
GOMX 1 08 Jul 09:47:39 09:50:55 22° 288° (WNW) 09:54:07 467.674
UWE-3 08 Jul 09:47:55 09:51:36 28° 97° (E) 09:55:25 435.000/436.395/437.385
HO-68 08 Jul 09:51:57 09:59:02 65° 288° (WNW) 10:06:04 435.675
POLYITAN 1 08 Jul 09:57:06 09:57:13 10° 68° (ENE) 09:57:38 437.675
